Smithville, OH

1:53 AM EDT on August 26, 2016 (GMT -0400)
Wayne County

Weather History for KBJJ - May, 2014

Change the Weather History Date:

Saturday, May 10, 2014

  Actual Average Record
Temperature  
Mean Temperature 58 °F -  
Max Temperature 66 °F 67 °F 84 °F (2004)
Min Temperature 51 °F 45 °F 37 °F (1997)
Degree Days  
Heating Degree Days 6    
Growing Degree Days 8 (Base 50)    
Moisture  
Dew Point 54 °F    
Average Humidity 76    
Maximum Humidity 90    
Minimum Humidity 52    
Precipitation  
Precipitation 0.00 in - - ()
Sea Level Pressure  
Sea Level Pressure 29.94 in    
Wind  
Wind Speed 7 mph (West)    
Max Wind Speed 13 mph    
Max Gust Speed 21 mph    
Visibility 10 miles    
Events      
Averages and records for this station are not official NWS values.
T = Trace of Precipitation, MM = Missing Value Source: NWS Daily Summary

Daily Weather History Graph

Daily Weather History Graph

Search for Another Location

Airport or City:

Trip Planner

Search our weather history database for the weather conditions in past years. The results will help you decide how hot, cold, wet, or windy it might be!

Date:

Astronomy

May. 10, 2014 Rise Set
Actual Time 6:15 AM EDT 8:33 PM EDT
Civil Twilight 5:44 AM EDT 9:04 PM EDT
Nautical Twilight 5:06 AM EDT 9:42 PM EDT
Astronomical Twilight 4:24 AM EDT 10:24 PM EDT
Moon 4:26 PM EDT (5/10) 3:49 AM EDT (5/10)
Length of Visible Light 15h 19m
Length of Day
14h 18m
Waxing Gibbous, 82% of the Moon is Illuminated
May 10
Waxing Gibbous
May 14
Full
May 21
Last Quarter
May 28
New
Jun 5
First Quarter

Hourly Weather History & Observations

Time (EDT) Temp. Dew Point Humidity Pressure Visibility Wind Dir Wind Speed Gust Speed Precip Events Conditions
12:02 AM 64.9 °F 61.0 °F 87% 29.90 in 10.0 mi SW 9.2 mph - N/A   Scattered Clouds
12:44 AM 64.9 °F 61.0 °F 87% 29.91 in 10.0 mi WNW 9.2 mph - N/A   Mostly Cloudy
12:56 AM 64.9 °F 61.0 °F 87% 29.89 in 10.0 mi SW 8.1 mph - N/A   Mostly Cloudy
1:03 AM 64.9 °F 61.0 °F 87% 29.90 in 10.0 mi SW 8.1 mph - N/A   Scattered Clouds
1:40 AM 64.0 °F 59.0 °F 84% 29.90 in 10.0 mi WNW 5.8 mph - N/A   Mostly Cloudy
1:47 AM 64.0 °F 59.0 °F 84% 29.89 in 10.0 mi WSW 6.9 mph - N/A   Mostly Cloudy
1:56 AM 64.9 °F 60.1 °F 84% 29.88 in 10.0 mi West 10.4 mph 20.7 mph N/A   Overcast
2:56 AM 64.9 °F 61.0 °F 87% 29.88 in 10.0 mi SW 11.5 mph - N/A   Overcast
3:20 AM 64.9 °F 61.0 °F 87% 29.90 in 10.0 mi SW 12.7 mph - N/A   Scattered Clouds
3:56 AM 64.0 °F 60.1 °F 87% 29.88 in 10.0 mi SW 10.4 mph - N/A   Partly Cloudy
4:56 AM 63.0 °F 60.1 °F 90% 29.90 in 10.0 mi WSW 10.4 mph - N/A   Scattered Clouds
5:31 AM 63.0 °F 59.0 °F 87% 29.92 in 10.0 mi WSW 9.2 mph - N/A   Mostly Cloudy
5:48 AM 62.1 °F 57.9 °F 86% 29.92 in 10.0 mi WSW 8.1 mph - N/A   Scattered Clouds
5:56 AM 62.1 °F 57.9 °F 86% 29.91 in 10.0 mi WSW 6.9 mph - N/A   Scattered Clouds
6:35 AM 62.1 °F 57.9 °F 86% 29.94 in 10.0 mi WSW 6.9 mph - N/A   Mostly Cloudy
6:56 AM 62.1 °F 57.0 °F 84% 29.93 in 10.0 mi West 8.1 mph - N/A   Overcast
7:56 AM 63.0 °F 55.9 °F 78% 29.95 in 10.0 mi WSW 10.4 mph - N/A   Overcast
8:56 AM 61.0 °F 54.0 °F 78% 29.97 in 10.0 mi NW 9.2 mph - N/A   Overcast
9:56 AM 59.0 °F 50.0 °F 72% 29.98 in 10.0 mi NW 3.5 mph - 0.00 in   Overcast
10:56 AM 60.1 °F 48.9 °F 67% 29.97 in 10.0 mi NW 5.8 mph - N/A   Overcast
11:56 AM 61.0 °F 50.0 °F 67% 29.98 in 10.0 mi NW 5.8 mph - N/A   Overcast
12:56 PM 62.1 °F 50.0 °F 65% 29.97 in 10.0 mi Calm Calm - N/A   Overcast
1:46 PM 63.0 °F 51.1 °F 65% 29.96 in 10.0 mi Calm Calm - N/A   Overcast
1:56 PM 64.0 °F 51.1 °F 63% 29.95 in 10.0 mi Calm Calm - N/A   Overcast
2:56 PM 64.9 °F 52.0 °F 63% 29.94 in 10.0 mi South 4.6 mph - N/A   Overcast
3:56 PM 66.0 °F 48.0 °F 52% 29.93 in 10.0 mi WNW 4.6 mph - N/A   Partly Cloudy
4:56 PM 66.0 °F 48.0 °F 52% 29.93 in 10.0 mi North 8.1 mph - N/A   Clear
5:56 PM 64.9 °F 46.9 °F 52% 29.94 in 10.0 mi NW 5.8 mph - N/A   Clear
6:56 PM 63.0 °F 46.9 °F 56% 29.94 in 10.0 mi WNW 6.9 mph - N/A   Clear
7:56 PM 63.0 °F 46.0 °F 54% 29.96 in 10.0 mi West 3.5 mph - N/A   Clear
8:56 PM 57.0 °F 48.0 °F 72% 29.98 in 10.0 mi Calm Calm - N/A   Clear
9:56 PM 53.1 °F 46.9 °F 80% 30.00 in 10.0 mi Calm Calm - N/A   Clear
10:56 PM 51.1 °F 46.0 °F 83% 30.02 in 10.0 mi Calm Calm - N/A   Clear
11:56 PM 54.0 °F 48.0 °F 80% 30.03 in 10.0 mi SSW 3.5 mph - N/A   Clear